Regional Weather Roundup
Issued by NWS

Home | Current Version | Previous Version | Graphics & Text | Print | Product List | Glossary On
Versions: 1 2 3 4 5 6 7 8 9 10 11 12 13 14 15 16 17 18 19 20 21 22 23 24 25 26 27 28 29 30 31 32 33 34 35 36 37 38 39 40 41 42 43 44 45 46 47 48 49 50
536
ASUS45 KABQ 132301
RWRNM
NEW MEXICO REGIONAL WEATHER ROUNDUP
NATIONAL WEATHER SERVICE ALBUQUERQUE NM
400 PM MST SAT FEB 13 2016

NOTE: "FAIR" MEANS FEW OR NO CLOUDS BELOW 12,000 FEET AGL WITH NO
       SIGNIFICANT WEATHER OR OBSTRUCTIONS TO VISION.

      THIS PRODUCT IS RELEASED AS TWO VERSIONS.  ONE VERSION NEAR
      THE TOP OF THE HOUR CONTAINING PRELIMINARY DATA FROM ALBUQUERQUE
      AND OTHER STATIONS.  A FINAL VERSION WITH ADDITIONAL DATA IS
      ISSUED ABOUT 10 MINUTES AFTER THE HOUR.

NMZ501-503-504-510>518-140000-
NORTHWEST PLATEAU/NORTHCENTRAL MOUNTAINS

CITY           SKY/WX    TMP DP  RH WIND       PRES   REMARKS
FARMINGTON     FAIR      62  19  19 W17G24    30.12F
SANTA FE       FAIR      66   9  10 NW21G28   30.10F
TAOS           FAIR      57  19  23 W15       30.14S

$$
NMZ402-403-502-505>509-140000-
WESTCENTRAL MOUNTAINS/SOUTHWEST MOUNTAINS

CITY           SKY/WX    TMP DP  RH WIND       PRES   REMARKS
GALLUP         FAIR      64   6  10 W12G22    30.18F
SILVER CITY      N/A     72   7   8 W14G20    30.15F

$$
NMZ407-409-411-412-140000-
SOUTHERN DESERTS

CITY           SKY/WX    TMP DP  RH WIND       PRES   REMARKS
DEMING         FAIR      74  11   9 MISG      30.08F
HOLLOMAN AFB   FAIR      72   8   8 VRB5      30.08F
ALAMOGORDO     FAIR      73   9   8 SW8       30.10F
T OR C         FAIR      73   7   7 S13       30.08F

$$
NMZ519>523-140000-
CENTRAL VALLEYS/CENTRAL HIGHLANDS

CITY           SKY/WX    TMP DP  RH WIND       PRES   REMARKS
ALBUQUERQUE    FAIR      68  14  12 S7        30.10F
DOUBLE EAGLE   SUNNY     68  16  13 SW8       30.12F
MORIARTY ARPT  FAIR      65   8  10 W16G22    30.14F
CLINES CORNERS FAIR      60  15  17 W24G31    30.13F
BELEN          FAIR      70  11  10 SE3       30.09F
SOCORRO        NOT AVBL

$$
NMZ524>526-539-540-140000-
SOUTHCENTRAL MOUNTAINS

CITY           SKY/WX    TMP DP  RH WIND       PRES   REMARKS
RUIDOSO        FAIR      61   5  11 SW13      30.19S

$$
NMZ527>531-140000-
NORTHEAST HIGHLANDS/NORTHEAST PLAINS

CITY           SKY/WX    TMP DP  RH WIND       PRES   REMARKS
LAS VEGAS      FAIR      63  14  15 W18G26    30.08S
RATON          FAIR      66   7  10 W21G29    30.00R
CLAYTON        FAIR      73  20  13 SW22G30   29.92F

$$
NMZ532>537-140000-
EASTCENTRAL PLAINS

CITY           SKY/WX    TMP DP  RH WIND       PRES   REMARKS
TUCUMCARI      FAIR      75  16  10 SW20G30   29.95F
CANNON AFB     FAIR      72  15  11 SW23      30.01F
CLOVIS AIRPORT FAIR      72  19  14 SW23      30.03F

$$
NMZ028-029-538-140000-
SOUTHEAST PLAINS

CITY           SKY/WX    TMP DP  RH WIND       PRES   REMARKS
ROSWELL        FAIR      74  24  15 SE12      30.02F
ARTESIA        FAIR      75  28  17 SW12G22   30.02F
CARLSBAD       FAIR      76  30  18 SE13      30.02F
HOBBS          SUNNY     73  23  15 S13G20    30.07F


$$




USA.gov is the U.S. government's official web portal to all federal, state and local government web resources and services.